Weather History for KPEQ - February, 2013

Change the Weather History Date:

Wednesday, February 6, 2013

  Actual Average Record
Temperature  
Mean Temperature 54 °F -  
Max Temperature 76 °F 61 °F 87 °F (2009)
Min Temperature 33 °F 29 °F 13 °F (1989)
Degree Days  
Heating Degree Days 10    
Growing Degree Days 4 (Base 50)    
Moisture  
Dew Point 31 °F    
Average Humidity 52    
Maximum Humidity 81    
Minimum Humidity 19    
Precipitation  
Precipitation 0.00 in - - ()
Sea Level Pressure  
Sea Level Pressure 29.91 in    
Wind  
Wind Speed 5 mph (WSW)    
Max Wind Speed 18 mph    
Max Gust Speed 28 mph    
Visibility 10 miles    
Events      
Averages and records for this station are not official NWS values.
T = Trace of Precipitation, MM = Missing Value Source: NWS Daily Summary

Daily Weather History Graph

Daily Weather History Graph

Search for Another Location

Airport or City:

Trip Planner

Search our weather history database for the weather conditions in past years. The results will help you decide how hot, cold, wet, or windy it might be!

Date:

Astronomy

Feb. 06, 2013 Rise Set
Actual Time 7:42 AM CST 6:33 PM CST
Civil Twilight 7:17 AM CST 6:59 PM CST
Nautical Twilight 6:48 AM CST 7:27 PM CST
Astronomical Twilight 6:20 AM CST 7:56 PM CST
Moon 4:21 AM CST (2/6) 3:01 PM CST (2/6)
Length of Visible Light 11h 41m
Length of Day
10h 50m
Waning Crescent, 17% of the Moon is Illuminated
Feb 6
Waning Crescent
Feb 10
New
Feb 17
First Quarter
Feb 25
Full
Mar 4
Last Quarter

Hourly Weather History & Observations

Time (CST) Temp. Windchill Dew Point Humidity Pressure Visibility Wind Dir Wind Speed Gust Speed Precip Events Conditions
12:15 AM 43.9 °F 40.5 °F 32.2 °F 63% 29.96 in 10.0 mi SW 5.8 mph - N/A   Clear
12:35 AM 42.1 °F 37.1 °F 32.0 °F 67% 29.96 in 10.0 mi SW 8.1 mph - N/A   Clear
1:15 AM 43.3 °F 38.6 °F 31.8 °F 64% 29.96 in 10.0 mi WSW 8.1 mph - N/A   Clear
1:35 AM 43.7 °F 39.7 °F 31.8 °F 63% 29.95 in 10.0 mi WSW 6.9 mph - N/A   Clear
1:55 AM 41.5 °F 37.1 °F 31.5 °F 67% 29.95 in 10.0 mi NW 6.9 mph - N/A   Clear
2:15 AM 42.1 °F 39.2 °F 31.1 °F 65% 29.95 in 10.0 mi NNW 4.6 mph - N/A   Clear
2:35 AM 39.2 °F - 30.2 °F 70% 29.95 in 10.0 mi Calm Calm - N/A   Clear
2:55 AM 37.9 °F - 30.4 °F 74% 29.95 in 10.0 mi Calm Calm - N/A   Clear
3:15 AM 37.8 °F - 30.7 °F 76% 29.94 in 10.0 mi Calm Calm - N/A   Clear
3:35 AM 38.1 °F - 30.6 °F 74% 29.94 in 10.0 mi Calm Calm - N/A   Clear
3:55 AM 37.4 °F 33.8 °F 29.8 °F 74% 29.94 in 10.0 mi South 4.6 mph - N/A   Clear
4:15 AM 36.1 °F 31.4 °F 29.7 °F 77% 29.95 in 10.0 mi South 5.8 mph - N/A   Clear
4:35 AM 36.7 °F 34.1 °F 30.0 °F 77% 29.94 in 10.0 mi South 3.5 mph - N/A   Clear
4:55 AM 35.6 °F 32.8 °F 28.9 °F 77% 29.94 in 10.0 mi SE 3.5 mph - N/A   Clear
5:15 AM 35.1 °F - 28.4 °F 77% 29.93 in 10.0 mi Calm Calm - N/A   Clear
5:35 AM 34.7 °F - 28.4 °F 78% 29.93 in 10.0 mi Calm Calm - N/A   Clear
5:55 AM 35.8 °F 33.0 °F 28.9 °F 76% 29.93 in 10.0 mi ENE 3.5 mph - N/A   Clear
6:15 AM 33.8 °F 30.8 °F 28.0 °F 79% 29.95 in 10.0 mi East 3.5 mph - N/A   Clear
6:35 AM 34.0 °F - 28.8 °F 81% 29.95 in 10.0 mi Calm Calm - N/A   Clear
7:15 AM 33.6 °F - 28.0 °F 80% 29.95 in 10.0 mi Calm Calm - N/A   Clear
7:35 AM 33.6 °F - 27.9 °F 79% 29.96 in 10.0 mi Calm Calm - N/A   Clear
7:55 AM 33.3 °F - 27.5 °F 79% 29.96 in 10.0 mi Calm Calm - N/A   Clear
8:35 AM 36.5 °F - 29.8 °F 77% 29.97 in 10.0 mi Calm Calm - N/A   Clear
8:55 AM 38.7 °F 36.3 °F 31.1 °F 74% 29.97 in 10.0 mi East 3.5 mph - N/A   Clear
9:15 AM 41.7 °F - 30.4 °F 64% 29.98 in 10.0 mi Calm Calm - N/A   Clear
9:35 AM 43.2 °F - 30.4 °F 61% 29.98 in 10.0 mi Calm Calm - N/A   Clear
10:35 AM 51.3 °F - 31.6 °F 47% 29.97 in 10.0 mi Calm Calm - N/A   Clear
11:35 AM 58.3 °F - 32.0 °F 37% 29.96 in 10.0 mi Calm Calm - N/A   Clear
11:55 AM 61.0 °F - 32.0 °F 34% 29.95 in 10.0 mi Calm Calm - N/A   Clear
12:15 PM 62.8 °F - 32.4 °F 32% 29.93 in 10.0 mi Calm Calm - N/A   Clear
12:55 PM 66.7 °F - 33.6 °F 29% 29.91 in 10.0 mi Calm Calm - N/A   Clear
1:35 PM 72.5 °F - 31.5 °F 22% 29.88 in 10.0 mi Calm Calm - N/A   Clear
2:15 PM 73.0 °F - 32.4 °F 22% 29.85 in 10.0 mi South 4.6 mph - N/A   Clear
2:35 PM 74.1 °F - 32.7 °F 22% 29.84 in 10.0 mi SW 8.1 mph - N/A   Clear
2:55 PM 75.6 °F - 32.4 °F 21% 29.84 in 10.0 mi WSW 18.4 mph 21.9 mph N/A   Clear
3:15 PM 76.6 °F - 31.8 °F 19% 29.83 in 10.0 mi West 13.8 mph 25.3 mph N/A   Clear
3:35 PM 76.5 °F - 30.9 °F 19% 29.82 in 10.0 mi West 17.3 mph 27.6 mph N/A   Clear
4:15 PM 74.7 °F - 31.8 °F 21% 29.81 in 10.0 mi WSW 17.3 mph 23.0 mph N/A   Clear
5:15 PM 73.8 °F - 31.6 °F 21% 29.82 in 10.0 mi West 15.0 mph - N/A   Clear
6:15 PM 68.0 °F - 32.0 °F 26% 29.83 in 10.0 mi West 6.9 mph - N/A   Clear
6:35 PM 66.4 °F - 32.0 °F 28% 29.83 in 10.0 mi West 6.9 mph - N/A   Clear
7:15 PM 64.6 °F - 31.6 °F 29% 29.84 in 10.0 mi West 12.7 mph - N/A   Clear
7:35 PM 65.1 °F - 31.1 °F 28% 29.86 in 10.0 mi West 10.4 mph - N/A   Clear
7:55 PM 59.9 °F - 31.1 °F 34% 29.86 in 10.0 mi West 6.9 mph - N/A   Clear
8:15 PM 58.1 °F - 31.1 °F 36% 29.86 in 10.0 mi WSW 5.8 mph - N/A   Clear
8:35 PM 56.3 °F - 31.1 °F 38% 29.88 in 10.0 mi West 8.1 mph - N/A   Clear
8:55 PM 55.6 °F - 30.7 °F 39% 29.88 in 10.0 mi West 3.5 mph - N/A   Clear
9:15 PM 55.0 °F - 31.5 °F 41% 29.88 in 10.0 mi West 9.2 mph - N/A   Clear
9:35 PM 56.3 °F - 31.1 °F 38% 29.89 in 10.0 mi SW 8.1 mph - N/A   Clear
9:55 PM 55.6 °F - 32.0 °F 41% 29.89 in 10.0 mi WSW 6.9 mph - N/A   Clear
10:15 PM 54.3 °F - 32.0 °F 43% 29.90 in 10.0 mi WSW 4.6 mph - N/A   Clear
10:35 PM 52.9 °F - 32.0 °F 45% 29.90 in 10.0 mi West 3.5 mph - N/A   Clear
10:55 PM 52.2 °F - 32.0 °F 46% 29.91 in 10.0 mi WSW 4.6 mph - N/A   Clear
11:15 PM 49.8 °F - 31.5 °F 49% 29.91 in 10.0 mi WSW 8.1 mph - N/A   Clear
11:35 PM 51.8 °F - 31.1 °F 45% 29.91 in 10.0 mi SW 10.4 mph - N/A   Clear
11:55 PM 52.0 °F - 30.4 °F 44% 29.91 in 10.0 mi WSW 9.2 mph - N/A   Clear